TimeCDT,TemperatureF,Dew PointF,Humidity,Sea Level PressureIn,VisibilityMPH,Wind Direction,Wind SpeedMPH,Gust SpeedMPH,PrecipitationIn,Events,Conditions,WindDirDegrees,DateUTC
12:15 AM,24.8,21.2,86,30.31,10.0,Calm,Calm,-,N/A,,Clear,0,2012-10-12 05:15:00
12:35 AM,24.8,21.2,86,30.31,10.0,Calm,Calm,-,N/A,,Clear,0,2012-10-12 05:35:00
12:55 AM,23.0,21.2,93,30.32,10.0,Calm,Calm,-,N/A,,Clear,0,2012-10-12 05:55:00
1:15 AM,23.0,19.4,86,30.33,10.0,Calm,Calm,-,N/A,,Clear,0,2012-10-12 06:15:00
1:35 AM,23.0,19.4,86,30.34,10.0,Calm,Calm,-,N/A,,Clear,0,2012-10-12 06:35:00
1:55 AM,21.2,19.4,93,30.34,10.0,Calm,Calm,-,N/A,,Clear,0,2012-10-12 06:55:00
2:15 AM,23.0,21.2,93,30.34,10.0,West,4.6,-,N/A,,Clear,280,2012-10-12 07:15:00
2:35 AM,21.2,17.6,86,30.35,10.0,West,3.5,-,N/A,,Clear,270,2012-10-12 07:35:00
3:15 AM,19.4,17.6,93,30.36,10.0,Calm,Calm,-,N/A,,Clear,0,2012-10-12 08:15:00
3:35 AM,21.2,19.4,93,30.36,10.0,Calm,Calm,-,N/A,,Clear,0,2012-10-12 08:35:00
3:55 AM,21.2,19.4,93,30.36,10.0,Calm,Calm,-,N/A,,Clear,0,2012-10-12 08:55:00
4:15 AM,19.4,17.6,93,30.37,10.0,Calm,Calm,-,N/A,,Clear,0,2012-10-12 09:15:00
4:35 AM,17.6,14.0,86,30.37,10.0,Calm,Calm,-,N/A,,Clear,0,2012-10-12 09:35:00
4:55 AM,17.6,15.8,93,30.38,10.0,Calm,Calm,-,N/A,,Clear,0,2012-10-12 09:55:00
5:15 AM,19.4,17.6,93,30.38,10.0,Calm,Calm,-,N/A,,Clear,0,2012-10-12 10:15:00
5:35 AM,17.6,15.8,93,30.38,10.0,Calm,Calm,-,N/A,,Clear,0,2012-10-12 10:35:00
5:55 AM,17.6,15.8,93,30.39,10.0,Calm,Calm,-,N/A,,Clear,0,2012-10-12 10:55:00
6:15 AM,17.6,15.8,93,30.39,10.0,Calm,Calm,-,N/A,,Clear,0,2012-10-12 11:15:00
6:35 AM,17.6,14.0,86,30.39,10.0,Calm,Calm,-,N/A,,Clear,0,2012-10-12 11:35:00
6:55 AM,17.6,14.0,86,30.41,10.0,Calm,Calm,-,N/A,,Clear,0,2012-10-12 11:55:00
7:15 AM,15.8,14.0,93,30.41,10.0,Calm,Calm,-,N/A,,Clear,0,2012-10-12 12:15:00
7:35 AM,17.6,14.0,86,30.41,10.0,Calm,Calm,-,N/A,,Clear,0,2012-10-12 12:35:00
7:55 AM,19.4,17.6,93,30.41,10.0,Calm,Calm,-,N/A,,Clear,0,2012-10-12 12:55:00
8:15 AM,21.2,19.4,93,30.42,10.0,Calm,Calm,-,N/A,,Clear,0,2012-10-12 13:15:00
8:35 AM,23.0,21.2,93,30.43,10.0,Calm,Calm,-,N/A,,Clear,0,2012-10-12 13:35:00
9:15 AM,30.2,26.6,86,30.43,10.0,Calm,Calm,-,N/A,,Clear,0,2012-10-12 14:15:00
9:35 AM,32.0,26.6,80,30.43,10.0,Calm,Calm,-,N/A,,Clear,0,2012-10-12 14:35:00
9:55 AM,32.0,28.4,87,30.43,10.0,Calm,Calm,-,N/A,,Clear,0,2012-10-12 14:55:00
10:15 AM,35.6,28.4,75,30.42,10.0,Calm,Calm,-,N/A,,Clear,0,2012-10-12 15:15:00
10:35 AM,35.6,26.6,70,30.43,10.0,Calm,Calm,-,N/A,,Clear,0,2012-10-12 15:35:00
10:55 AM,37.4,24.8,60,30.41,10.0,Calm,Calm,-,N/A,,Clear,0,2012-10-12 15:55:00
11:15 AM,37.4,21.2,52,30.42,10.0,Calm,Calm,-,N/A,,Clear,0,2012-10-12 16:15:00
11:35 AM,41.0,23.0,49,30.41,10.0,Calm,Calm,-,N/A,,Clear,0,2012-10-12 16:35:00
12:15 PM,42.8,23.0,46,30.39,10.0,South,4.6,-,N/A,,Clear,190,2012-10-12 17:15:00
12:35 PM,42.8,21.2,42,30.38,10.0,SSE,6.9,-,N/A,,Clear,150,2012-10-12 17:35:00
12:55 PM,42.8,21.2,42,30.37,10.0,South,3.5,-,N/A,,Clear,180,2012-10-12 17:55:00
1:35 PM,44.6,21.2,39,30.35,10.0,South,8.1,-,N/A,,Clear,170,2012-10-12 18:35:00
1:55 PM,44.6,21.2,39,30.34,10.0,SSE,6.9,-,N/A,,Clear,150,2012-10-12 18:55:00
2:15 PM,44.6,19.4,37,30.34,10.0,South,4.6,-,N/A,,Clear,190,2012-10-12 19:15:00
2:35 PM,46.4,19.4,34,30.33,10.0,South,3.5,-,N/A,,Clear,170,2012-10-12 19:35:00
2:55 PM,46.4,19.4,34,30.32,10.0,SW,4.6,-,N/A,,Clear,220,2012-10-12 19:55:00
3:15 PM,46.4,21.2,37,30.31,10.0,SSE,5.8,-,N/A,,Clear,160,2012-10-12 20:15:00
3:35 PM,46.4,19.4,34,30.30,10.0,SSW,5.8,-,N/A,,Clear,210,2012-10-12 20:35:00
3:55 PM,46.4,19.4,34,30.30,10.0,South,4.6,-,N/A,,Clear,180,2012-10-12 20:55:00
4:15 PM,46.4,19.4,34,30.30,10.0,South,6.9,-,N/A,,Clear,190,2012-10-12 21:15:00
4:35 PM,44.6,19.4,37,30.30,10.0,SSW,5.8,-,N/A,,Clear,210,2012-10-12 21:35:00
5:15 PM,44.6,19.4,37,30.27,10.0,SSW,4.6,-,N/A,,Clear,200,2012-10-12 22:15:00
5:55 PM,42.8,19.4,39,30.27,10.0,South,4.6,-,N/A,,Clear,190,2012-10-12 22:55:00
6:15 PM,41.0,19.4,42,30.26,10.0,South,4.6,-,N/A,,Clear,180,2012-10-12 23:15:00
6:55 PM,41.0,19.4,42,30.26,10.0,Calm,Calm,-,N/A,,Clear,0,2012-10-12 23:55:00
7:15 PM,37.4,19.4,48,30.25,10.0,Calm,Calm,-,N/A,,Clear,0,2012-10-13 00:15:00
7:35 PM,35.6,19.4,52,30.24,10.0,Calm,Calm,-,N/A,,Clear,0,2012-10-13 00:35:00
7:55 PM,33.8,19.4,56,30.23,10.0,Calm,Calm,-,N/A,,Clear,0,2012-10-13 00:55:00
8:15 PM,33.8,21.2,60,30.23,10.0,Calm,Calm,-,N/A,,Clear,0,2012-10-13 01:15:00
8:35 PM,32.0,21.2,64,30.22,10.0,Calm,Calm,-,N/A,,Clear,0,2012-10-13 01:35:00
9:15 PM,33.8,19.4,56,30.20,10.0,Calm,Calm,-,N/A,,Clear,0,2012-10-13 02:15:00
9:35 PM,32.0,19.4,60,30.19,10.0,Calm,Calm,-,N/A,,Clear,0,2012-10-13 02:35:00
9:55 PM,33.8,19.4,56,30.18,10.0,SE,3.5,-,N/A,,Clear,140,2012-10-13 02:55:00
10:15 PM,33.8,21.2,60,30.18,10.0,SSE,3.5,-,N/A,,Clear,150,2012-10-13 03:15:00
10:55 PM,33.8,19.4,56,30.17,10.0,Calm,Calm,-,N/A,,Clear,0,2012-10-13 03:55:00
11:15 PM,33.8,19.4,56,30.16,10.0,SSE,3.5,-,N/A,,Clear,150,2012-10-13 04:15:00
11:35 PM,33.8,19.4,56,30.16,10.0,Calm,Calm,-,N/A,,Clear,0,2012-10-13 04:35:00
11:55 PM,33.8,19.4,56,30.16,10.0,Calm,Calm,-,N/A,,Clear,0,2012-10-13 04:55:00